Havre, MT

8:16 PM MDT on May 26, 2018 (GMT -0600)
Havre City-County

Weather History for KHVR - October, 2011

Change the Weather History Date:

Tuesday, October 25, 2011

  Actual Average Record
Temperature  
Mean Temperature 37 °F 40 °F  
Max Temperature 51 °F 54 °F 82 °F (1924)
Min Temperature 23 °F 27 °F -7 °F (1919)
Degree Days  
Heating Degree Days 28 25  
Month to date heating degree days 386 485  
Since 1 July heating degree days 571 842  
Cooling Degree Days 0 0  
Month to date cooling degree days 2 0  
Year to date cooling degree days 370 386  
Moisture  
Dew Point 26 °F    
Average Humidity 64    
Maximum Humidity 92    
Minimum Humidity 36    
Precipitation  
Precipitation 0.00 in 0.02 in 0.31 in (1946)
Month to date precipitation 0.08 0.49  
Year to date precipitation 11.32 10.28  
Snow  
Snow 0.00 in 0.00 in 2.30 in (1939)
Month to date snowfall 0.0 1.4  
Since 1 July snowfall 0.0 1.7  
Since 1 September snowfall 0.0 1.7  
Snow Depth 0.00 in    
Sea Level Pressure  
Sea Level Pressure 30.29 in    
Wind  
Wind Speed 9 mph (WSW)    
Max Wind Speed 21 mph    
Max Gust Speed 24 mph    
Visibility 10 miles    
Events      
T = Trace of Precipitation, MM = Missing Value Source: NWS Daily Summary

Daily Weather History Graph

Daily Weather History Graph

Search for Another Location

Airport or City:

Astronomy

Oct. 25, 2011 Rise Set
Actual Time 7:53 AM MDT 6:11 PM MDT
Civil Twilight 7:21 AM MDT 6:43 PM MDT
Nautical Twilight 6:45 AM MDT 7:20 PM MDT
Astronomical Twilight 6:08 AM MDT 7:56 PM MDT
Moon 6:28 AM MDT (10/25) 5:14 PM MDT (10/25)
Length of Visible Light 11h 22m
Length of Day
10h 17m
Waning Crescent, 2% of the Moon is Illuminated
Oct 25
Waning Crescent
Oct 26
New
Nov 2
First Quarter
Nov 10
Full
Nov 18
Last Quarter

Hourly Weather History & Observations

Time (MDT) Temp. Windchill Dew Point Humidity Pressure Visibility Wind Dir Wind Speed Gust Speed Precip Events Conditions
12:53 AM 30.2 °F 25.4 °F 24.8 °F 80% 30.09 in 10.0 mi WSW 4.6 mph - N/A   Scattered Clouds
1:53 AM 30.9 °F 26.2 °F 25.0 °F 79% 30.16 in 10.0 mi West 4.6 mph - N/A   Mostly Cloudy
2:53 AM 33.1 °F 26.9 °F 26.1 °F 75% 30.17 in 10.0 mi WSW 6.9 mph - N/A   Scattered Clouds
3:53 AM 28.9 °F 21.1 °F 25.0 °F 85% 30.18 in 10.0 mi SW 8.1 mph - N/A   Clear
6:53 AM 26.1 °F 15.6 °F 23.0 °F 88% 30.26 in 10.0 mi SW 11.5 mph - N/A   Partly Cloudy
7:53 AM 28.0 °F 20.0 °F 25.0 °F 88% 30.26 in 10.0 mi SW 8.1 mph - N/A   Overcast
8:53 AM 32.0 °F 23.6 °F 27.0 °F 82% 30.29 in 10.0 mi SW 10.4 mph - N/A   Overcast
9:53 AM 36.0 °F 28.5 °F 28.0 °F 73% 30.30 in 10.0 mi SW 10.4 mph - N/A   Mostly Cloudy
10:53 AM 37.9 °F 30.9 °F 28.0 °F 68% 30.31 in 10.0 mi WSW 10.4 mph - N/A   Mostly Cloudy
11:53 AM 43.0 °F 36.8 °F 27.0 °F 53% 30.31 in 10.0 mi SSW 11.5 mph - N/A   Clear
12:53 PM 48.0 °F - 26.1 °F 42% 30.30 in 10.0 mi West 10.4 mph - N/A   Scattered Clouds
1:53 PM 48.0 °F - 26.1 °F 42% 30.28 in 10.0 mi WSW 10.4 mph - N/A   Clear
2:53 PM 50.0 °F - 24.1 °F 36% 30.27 in 10.0 mi WNW 11.5 mph - N/A   Partly Cloudy
3:53 PM 46.9 °F - 24.1 °F 41% 30.30 in 10.0 mi WNW 16.1 mph - N/A   Mostly Cloudy
4:53 PM 46.9 °F - 23.0 °F 39% 30.31 in 10.0 mi WNW 11.5 mph - N/A   Mostly Cloudy
7:53 PM 34.0 °F 27.2 °F 27.0 °F 75% 30.38 in 10.0 mi SW 8.1 mph - N/A   Clear
8:53 PM 33.1 °F 25.5 °F 27.0 °F 78% 30.38 in 10.0 mi WSW 9.2 mph - N/A   Mostly Cloudy
9:53 PM 30.9 °F 22.8 °F 27.0 °F 85% 30.39 in 10.0 mi SW 9.2 mph - N/A   Partly Cloudy
10:53 PM 28.9 °F 21.1 °F 26.1 °F 89% 30.39 in 10.0 mi WSW 8.1 mph - N/A   Partly Cloudy
11:53 PM 24.1 °F 16.0 °F 21.9 °F 91% 30.39 in 10.0 mi West 6.9 mph - N/A   Clear